Location: Aufkirchen
(47.9603°N, 11.3653°E)
Time: 08:47:09
(UTC+01:00)

Tiros 1 - Pass Details

Date: 02 December 2020
Orbit: 630 x 663 km, 48.4° (Epoch: 28 January)

Event Time Altitude Azimuth Distance (km) Brightness Sun altitude
Rises 20:53:25 0° 281° (W) 2,982 11.3 -44.2°
Enters shadow 20:55:09 - 272° (W) 2,445 10.7 -44.5°
Reaches altitude 10° 20:56:38 10° 259° (W) 2,060 - -44.7°
Maximum altitude 20:59:22 15° 224° (SW) 1,716 - -45.1°
Drops below altitude 10° 21:02:06 10° 188° (S) 2,040 - -45.6°
Sets 21:05:16 0° 166° (SSE) 2,938 - -46.1°
